This is the latest recevied weather packets stored in our database for station/object KQ4JKJ. If no packets are shown the sender has not sent any weather packets the latest 10 day(s).
| Time | Temp. | Humidity | Pressure | Rain* | Wind** | Luminosity | Snow |
|---|---|---|---|---|---|---|---|
| 1777726054 | 25.56° C | 86% | 1005.1 hPa | 0 mm | - | 243 W/m² | - |
| 1777725750 | 25.56° C | 88% | 1005.1 hPa | 0 mm | - | 218 W/m² | - |
| 1777725449 | 25° C | 89% | 1004.9 hPa | 0 mm | - | 203 W/m² | - |
| 1777725146 | 25° C | 90% | 1004.9 hPa | 0 mm | - | 194 W/m² | - |
| 1777724843 | 24.44° C | 91% | 1004.9 hPa | 0 mm | - | 174 W/m² | - |
| 1777724539 | 24.44° C | 91% | 1005.1 hPa | 0 mm | - | 167 W/m² | - |
| 1777724237 | 23.89° C | 92% | 1005 hPa | 0 mm | - | 158 W/m² | - |
| 1777723935 | 23.33° C | 93% | 1004.9 hPa | 0 mm | - | 132 W/m² | - |
| 1777723631 | 23.33° C | 94% | 1004.7 hPa | 0 mm | - | 87 W/m² | - |
| 1777723328 | 22.78° C | 95% | 1004.8 hPa | 0 mm | - | 86 W/m² | - |
| 1777723026 | 22.78° C | 95% | 1004.8 hPa | 0 mm | - | 73 W/m² | - |
| 1777722722 | 22.22° C | 96% | 1004.7 hPa | 0 mm | - | 65 W/m² | - |
| 1777722418 | 22.22° C | 97% | 1004.7 hPa | 0 mm | - | 46 W/m² | - |
| 1777722115 | 22.22° C | 97% | 1004.7 hPa | 0 mm | - | 48 W/m² | - |
| 1777721812 | 21.67° C | 98% | 1004.4 hPa | 0 mm | - | 44 W/m² | - |
| 1777721510 | 21.67° C | 98% | 1004.3 hPa | 0 mm | - | 36 W/m² | - |
| 1777721208 | 21.67° C | 98% | 1004.2 hPa | 0 mm | - | 28 W/m² | - |
| 1777720905 | 21.67° C | 98% | 1004.5 hPa | 0 mm | - | 21 W/m² | - |
| 1777720603 | 21.67° C | 99% | 1004.4 hPa | 0 mm | - | 17 W/m² | - |
| 1777720300 | 21.67° C | 99% | 1004.4 hPa | 0 mm | - | 16 W/m² | - |
| 1777719998 | 21.67° C | 99% | 1004.3 hPa | 0 mm | - | 16 W/m² | - |
| 1777719695 | 21.67° C | 99% | 1004.4 hPa | 0 mm | - | 14 W/m² | - |
| 1777719392 | 21.11° C | 99% | 1004.3 hPa | 0 mm | - | 10 W/m² | - |
| 1777719089 | 21.11° C | 99% | 1004.1 hPa | 0 mm | - | 6 W/m² | - |
| 1777718786 | 21.11° C | 99% | 1004.1 hPa | 0 mm | - | 3 W/m² | - |
* Rain latest hour (hover to see other rain measurements)
** Current wind speed in m/s (hover to see current wind gust speed)